TimeCST,TemperatureF,Dew PointF,Humidity,Sea Level PressureIn,VisibilityMPH,Wind Direction,Wind SpeedMPH,Gust SpeedMPH,PrecipitationIn,Events,Conditions,WindDirDegrees,DateUTC
12:15 AM,32.0,32.0,100,29.83,10.0,WSW,10.4,-,N/A,,Clear,240,2012-11-21 06:15:00
12:35 AM,32.0,32.0,100,29.83,10.0,West,8.1,-,N/A,,Clear,270,2012-11-21 06:35:00
12:55 AM,32.0,32.0,100,29.83,10.0,West,8.1,-,N/A,,Clear,260,2012-11-21 06:55:00
1:15 AM,33.8,33.8,100,29.83,10.0,WSW,8.1,-,N/A,,Clear,250,2012-11-21 07:15:00
1:35 AM,32.0,32.0,100,29.83,10.0,WSW,6.9,-,N/A,,Clear,250,2012-11-21 07:35:00
1:55 AM,32.0,32.0,100,29.83,10.0,West,8.1,-,N/A,,Clear,270,2012-11-21 07:55:00
2:15 AM,32.0,32.0,100,29.83,10.0,West,9.2,-,N/A,,Clear,280,2012-11-21 08:15:00
2:35 AM,33.8,33.8,100,29.83,10.0,West,8.1,-,N/A,,Clear,280,2012-11-21 08:35:00
2:55 AM,33.8,33.8,100,29.84,10.0,WNW,4.6,-,N/A,,Clear,300,2012-11-21 08:55:00
3:15 AM,33.8,33.8,100,29.84,10.0,North,4.6,-,N/A,,Clear,350,2012-11-21 09:15:00
3:35 AM,33.8,33.8,100,29.85,10.0,NNE,5.8,-,N/A,,Clear,30,2012-11-21 09:35:00
3:55 AM,35.6,33.8,93,29.84,10.0,ENE,4.6,-,N/A,,Clear,60,2012-11-21 09:55:00
4:15 AM,33.8,33.8,100,29.84,10.0,Calm,Calm,-,N/A,,Clear,0,2012-11-21 10:15:00
4:35 AM,32.0,32.0,100,29.84,10.0,WNW,4.6,-,N/A,,Clear,290,2012-11-21 10:35:00
4:55 AM,33.8,33.8,100,29.85,10.0,West,3.5,-,N/A,,Clear,260,2012-11-21 10:55:00
5:15 AM,32.0,32.0,100,29.85,10.0,Calm,Calm,-,N/A,,Clear,0,2012-11-21 11:15:00
5:35 AM,32.0,32.0,100,29.85,10.0,North,3.5,-,N/A,,Clear,360,2012-11-21 11:35:00
5:55 AM,32.0,32.0,100,29.84,10.0,North,4.6,-,N/A,,Clear,10,2012-11-21 11:55:00
6:15 AM,32.0,32.0,100,29.83,10.0,NE,5.8,-,N/A,,Clear,40,2012-11-21 12:15:00
6:35 AM,33.8,32.0,93,29.82,10.0,ENE,6.9,-,N/A,,Clear,60,2012-11-21 12:35:00
6:55 AM,35.6,32.0,87,29.83,10.0,NE,8.1,-,N/A,,Scattered Clouds,50,2012-11-21 12:55:00
7:15 AM,35.6,32.0,87,29.83,10.0,NE,9.2,-,N/A,,Scattered Clouds,50,2012-11-21 13:15:00
7:35 AM,35.6,32.0,87,29.84,10.0,ENE,6.9,-,N/A,,Scattered Clouds,60,2012-11-21 13:35:00
7:55 AM,35.6,33.8,93,29.83,10.0,NE,10.4,-,N/A,,Mostly Cloudy,50,2012-11-21 13:55:00
8:15 AM,33.8,33.8,100,29.83,10.0,ENE,9.2,-,N/A,,Overcast,70,2012-11-21 14:15:00
8:35 AM,33.8,33.8,100,29.83,10.0,ENE,9.2,-,N/A,,Scattered Clouds,70,2012-11-21 14:35:00
8:55 AM,33.8,32.0,93,29.83,10.0,ENE,10.4,-,N/A,,Clear,60,2012-11-21 14:55:00
9:15 AM,32.0,32.0,100,29.83,10.0,ENE,15.0,-,N/A,,Clear,70,2012-11-21 15:15:00
9:35 AM,32.0,32.0,100,29.82,10.0,East,12.7,-,N/A,,Clear,80,2012-11-21 15:35:00
9:55 AM,32.0,32.0,100,29.81,10.0,East,16.1,-,N/A,,Clear,80,2012-11-21 15:55:00
10:15 AM,32.0,32.0,100,29.81,10.0,East,12.7,-,N/A,,Clear,90,2012-11-21 16:15:00
10:35 AM,32.0,32.0,100,29.82,10.0,East,12.7,-,N/A,,Partly Cloudy,80,2012-11-21 16:35:00
10:55 AM,33.8,33.8,100,29.81,10.0,East,12.7,-,N/A,,Mostly Cloudy,90,2012-11-21 16:55:00
11:15 AM,32.0,32.0,100,29.81,10.0,East,12.7,-,N/A,,Mostly Cloudy,90,2012-11-21 17:15:00
11:35 AM,32.0,32.0,100,29.79,10.0,East,12.7,-,N/A,,Mostly Cloudy,100,2012-11-21 17:35:00
11:55 AM,32.0,32.0,100,29.77,9.0,ESE,13.8,-,N/A,,Mostly Cloudy,110,2012-11-21 17:55:00
12:15 PM,32.0,32.0,100,29.75,9.0,ESE,10.4,-,N/A,,Overcast,110,2012-11-21 18:15:00
12:35 PM,33.8,33.8,100,29.76,10.0,East,8.1,-,N/A,,Overcast,100,2012-11-21 18:35:00
12:55 PM,35.6,33.8,93,29.75,10.0,ESE,8.1,-,N/A,,Overcast,110,2012-11-21 18:55:00
1:15 PM,35.6,33.8,93,29.75,10.0,East,8.1,-,N/A,,Overcast,100,2012-11-21 19:15:00
1:35 PM,33.8,33.8,100,29.74,10.0,East,10.4,-,N/A,,Mostly Cloudy,90,2012-11-21 19:35:00
1:55 PM,35.6,33.8,93,29.71,10.0,East,11.5,-,N/A,,Overcast,90,2012-11-21 19:55:00
2:15 PM,35.6,33.8,93,29.70,10.0,East,12.7,-,N/A,,Mostly Cloudy,90,2012-11-21 20:15:00
2:35 PM,33.8,33.8,100,29.69,10.0,East,11.5,-,N/A,,Mostly Cloudy,80,2012-11-21 20:35:00
2:55 PM,33.8,33.8,100,29.67,10.0,ENE,12.7,-,N/A,,Overcast,70,2012-11-21 20:55:00
3:15 PM,33.8,33.8,100,29.65,10.0,East,13.8,-,N/A,,Scattered Clouds,100,2012-11-21 21:15:00
3:35 PM,33.8,33.8,100,29.65,10.0,East,13.8,-,N/A,,Clear,100,2012-11-21 21:35:00
3:55 PM,32.0,32.0,100,29.66,10.0,East,9.2,-,N/A,,Clear,90,2012-11-21 21:55:00
4:15 PM,32.0,32.0,100,29.65,9.0,East,11.5,-,N/A,,Partly Cloudy,90,2012-11-21 22:15:00
4:35 PM,32.0,32.0,100,29.64,8.0,East,11.5,-,N/A,,Clear,80,2012-11-21 22:35:00
4:55 PM,32.0,32.0,100,29.65,5.0,East,13.8,-,N/A,,Mostly Cloudy,80,2012-11-21 22:55:00
5:15 PM,32.0,32.0,100,29.64,5.0,East,12.7,-,N/A,,Mostly Cloudy,90,2012-11-21 23:15:00
5:35 PM,32.0,32.0,100,29.63,5.0,East,16.1,-,N/A,,Mostly Cloudy,100,2012-11-21 23:35:00
5:55 PM,32.0,32.0,100,29.61,1.8,East,15.0,-,N/A,,Overcast,100,2012-11-21 23:55:00
6:15 PM,32.0,32.0,100,29.60,0.5,ESE,12.7,-,N/A,Fog,Light Freezing Fog,110,2012-11-22 00:15:00
6:35 PM,32.0,32.0,100,29.60,2.5,East,12.7,-,N/A,,Mostly Cloudy,100,2012-11-22 00:35:00
6:55 PM,30.2,30.2,100,29.59,2.5,East,12.7,-,N/A,,Partly Cloudy,100,2012-11-22 00:55:00
7:15 PM,30.2,30.2,100,29.59,3.0,East,8.1,-,N/A,,Clear,100,2012-11-22 01:15:00
7:35 PM,30.2,30.2,100,29.60,4.0,NE,8.1,-,N/A,,Clear,50,2012-11-22 01:35:00
7:55 PM,30.2,30.2,100,29.59,3.0,ENE,6.9,-,N/A,,Scattered Clouds,60,2012-11-22 01:55:00
8:15 PM,30.2,30.2,100,29.58,2.5,ENE,5.8,-,N/A,,Mostly Cloudy,70,2012-11-22 02:15:00
8:35 PM,30.2,30.2,100,29.58,4.0,NE,4.6,-,N/A,,Clear,50,2012-11-22 02:35:00
8:55 PM,30.2,30.2,100,29.57,3.0,ENE,5.8,-,N/A,,Clear,60,2012-11-22 02:55:00
9:15 PM,30.2,30.2,100,29.57,5.0,NE,4.6,-,N/A,,Clear,50,2012-11-22 03:15:00
9:35 PM,28.4,28.4,100,29.56,4.0,NNE,3.5,-,N/A,,Clear,30,2012-11-22 03:35:00
9:55 PM,28.4,28.4,100,29.57,1.0,North,6.9,-,N/A,,Overcast,360,2012-11-22 03:55:00
10:15 PM,28.4,28.4,100,29.57,0.5,North,8.1,-,N/A,Fog,Light Freezing Fog,360,2012-11-22 04:15:00
10:35 PM,28.4,28.4,100,29.55,0.5,NE,6.9,-,N/A,Fog,Light Freezing Fog,40,2012-11-22 04:35:00
10:55 PM,28.4,28.4,100,29.57,0.5,North,15.0,-,N/A,Fog,Light Freezing Fog,350,2012-11-22 04:55:00
11:15 PM,28.4,28.4,100,29.56,0.2,North,15.0,-,N/A,Fog,Light Freezing Fog,10,2012-11-22 05:15:00
11:35 PM,28.4,28.4,100,29.54,0.2,North,11.5,-,N/A,Fog,Light Freezing Fog,10,2012-11-22 05:35:00
11:55 PM,28.4,28.4,100,29.56,0.2,North,12.7,-,N/A,Fog,Light Freezing Fog,350,2012-11-22 05:55:00